Shute Harbour, Australia

1:04 PM AEST on August 23, 2017 (GMT +1000)
Shute Harbour

Weather History for 94368 - April, 2014

Change the Weather History Date:

Saturday, April 12, 2014

  Actual Average Record
Temperature  
Mean Temperature 76 °F -  
Max Temperature 80 °F - - ()
Min Temperature 73 °F - - ()
Cooling Degree Days 12    
Growing Degree Days 26 (Base 50)    
Moisture  
Dew Point 75 °F    
Average Humidity 90    
Maximum Humidity 100    
Minimum Humidity 81    
Precipitation  
Precipitation 0.08 in - - ()
Sea Level Pressure  
Sea Level Pressure 29.80 in    
Wind  
Wind Speed 11 mph ()    
Max Wind Speed 17 mph    
Max Gust Speed -    
Visibility 5.9 miles    
Events      
T = Trace of Precipitation, MM = Missing Value Source: Averaged Metar Reports

Daily Weather History Graph

Daily Weather History Graph

Search for Another Location

Airport or City:

Trip Planner

Search our weather history database for the weather conditions in past years. The results will help you decide how hot, cold, wet, or windy it might be!

Date:

Astronomy

Apr. 12, 2014 Rise Set
Actual Time 6:14 AM AEST 5:55 PM AEST
Civil Twilight 5:52 AM AEST 6:17 PM AEST
Nautical Twilight 5:26 AM AEST 6:43 PM AEST
Astronomical Twilight 5:00 AM AEST 7:09 PM AEST
Moon 3:49 PM AEST (4/12) 3:16 AM AEST (4/12)
Length of Visible Light 12h 25m
Length of Day
11h 41m
Waxing Gibbous, 89% of the Moon is Illuminated
Apr 12
Waxing Gibbous
Apr 15
Full
Apr 22
Last Quarter
Apr 29
New
May 7
First Quarter

Hourly Weather History & Observations

Time (AEST) Temp. Heat Index Dew Point Humidity Pressure Visibility Wind Dir Wind Speed Gust Speed Precip Events Conditions
12:00 AM 78 °F - 74 °F 84% 29.83 in - East 15.0 mph - -  
12:00 AM 77.0 °F - 73.4 °F 89% 29.83 in 6.2 mi East 15.0 mph - N/A   Unknown
12:03 AM 77.0 °F - 73.4 °F 89% 29.83 in 6.2 mi East 13.8 mph - N/A   Unknown
12:30 AM 77.0 °F - 75.2 °F 94% 29.83 in 6.2 mi East 16.1 mph - N/A   Unknown
12:51 AM 77.0 °F - 75.2 °F 94% 29.83 in 3.7 mi East 17.3 mph - N/A   Unknown
1:00 AM 77.0 °F - 75.2 °F 94% 29.80 in 3.1 mi East 17.3 mph - N/A   Unknown
1:30 AM 75.2 °F - 73.4 °F 94% 29.80 in 3.7 mi East 13.8 mph - N/A   Unknown
2:00 AM 75.2 °F - 75.2 °F 100% 29.77 in 5.6 mi East 16.1 mph - N/A   Unknown
2:30 AM 75.2 °F - 73.4 °F 94% 29.77 in 6.2 mi ENE 10.4 mph - N/A   Unknown
3:00 AM 76 °F - 74 °F 93% 29.78 in - East 9.2 mph - -  
3:00 AM 75.2 °F - 75.2 °F 100% 29.77 in 6.2 mi East 9.2 mph - N/A   Unknown
3:30 AM 75.2 °F - 73.4 °F 94% 29.77 in 6.2 mi East 8.1 mph - N/A   Unknown
4:00 AM 75.2 °F - 73.4 °F 94% 29.77 in 6.2 mi East 9.2 mph - N/A   Unknown
4:30 AM 77.0 °F - 75.2 °F 94% 29.77 in 6.2 mi East 8.1 mph - N/A   Unknown
4:56 AM 77.0 °F - 75.2 °F 94% 29.77 in 3.7 mi East 11.5 mph - N/A   Unknown
5:00 AM 77.0 °F - 75.2 °F 94% 29.77 in - East 11.5 mph - N/A   Unknown
5:17 AM 77.0 °F - 75.2 °F 94% 29.77 in 6.2 mi East 15.0 mph - N/A   Unknown
5:30 AM 77.0 °F - 75.2 °F 94% 29.80 in 6.2 mi East 15.0 mph - N/A   Unknown
6:00 AM 77 °F - 74 °F 90% 29.80 in - East 12.7 mph - -  
6:00 AM 77.0 °F - 75.2 °F 94% 29.80 in 6.2 mi East 12.7 mph - N/A   Unknown
6:30 AM 77.0 °F - 75.2 °F 94% 29.80 in 6.2 mi ENE 9.2 mph - N/A   Unknown
7:00 AM 77.0 °F - 75.2 °F 94% 29.80 in 6.2 mi East 15.0 mph - N/A   Unknown
7:30 AM 77.0 °F - 75.2 °F 94% 29.83 in 6.2 mi ENE 10.4 mph - N/A   Unknown
8:00 AM 77.0 °F - 75.2 °F 94% 29.83 in 6.2 mi NE 10.4 mph - N/A   Unknown
8:30 AM 77.0 °F - 75.2 °F 94% 29.83 in 6.2 mi NE 11.5 mph - N/A   Unknown
9:00 AM 78 °F - 75 °F 88% 29.85 in - ENE 11.5 mph - -  
9:00 AM 78.8 °F - 75.2 °F 89% 29.83 in 6.2 mi ENE 11.5 mph - N/A   Unknown
9:30 AM 78.8 °F - 75.2 °F 89% 29.86 in 6.2 mi ENE 9.2 mph - N/A   Unknown
10:00 AM 80.6 °F 86.2 °F 75.2 °F 84% 29.86 in 6.2 mi NE 9.2 mph - N/A   Unknown
10:30 AM 80.6 °F 86.2 °F 75.2 °F 84% 29.83 in 6.2 mi NE 8.1 mph - N/A   Unknown
11:00 AM 78.8 °F - 75.2 °F 89% 29.83 in 6.2 mi ENE 8.1 mph - N/A   Unknown
11:30 AM 78.8 °F - 75.2 °F 89% 29.83 in 6.2 mi ENE 10.4 mph - N/A   Unknown
12:00 PM 80 °F - 76 °F 83% 29.81 in - ENE 8.1 mph - -  
12:00 PM 80.6 °F 86.2 °F 75.2 °F 84% 29.80 in 6.2 mi ENE 8.1 mph - N/A   Unknown
12:30 PM 78.8 °F - 73.4 °F 83% 29.80 in 6.2 mi East 11.5 mph - N/A   Unknown
1:00 PM 78.8 °F - 73.4 °F 83% 29.77 in 6.2 mi ENE 9.2 mph - N/A   Unknown
1:02 PM 80.6 °F 86.2 °F 75.2 °F 84% 29.77 in 6.2 mi East 9.2 mph - N/A   Unknown
1:30 PM 78.8 °F - 75.2 °F 89% 29.77 in 6.2 mi East 13.8 mph - N/A   Unknown
2:00 PM 78.8 °F - 73.4 °F 83% 29.77 in 6.2 mi ENE 9.2 mph - N/A   Unknown
2:30 PM 80.6 °F 86.2 °F 75.2 °F 84% 29.77 in 6.2 mi East 9.2 mph - N/A   Unknown
3:00 PM 79 °F - 74 °F 81% 29.75 in - East 11.5 mph - -  
3:00 PM 78.8 °F - 73.4 °F 83% 29.74 in - East 11.5 mph - N/A   Unknown
3:30 PM 78.8 °F - 73.4 °F 83% 29.74 in 6.2 mi East 13.8 mph - N/A   Unknown
4:00 PM 78.8 °F - 73.4 °F 83% 29.74 in 6.2 mi ENE 11.5 mph - N/A   Unknown
4:30 PM 78.8 °F - 75.2 °F 89% 29.74 in 5.6 mi ENE 9.2 mph - N/A   Unknown
5:00 PM 77.0 °F - 73.4 °F 89% 29.77 in 6.2 mi East 11.5 mph - N/A   Unknown
5:30 PM 77.0 °F - 75.2 °F 94% 29.77 in 6.2 mi East 6.9 mph - N/A   Unknown
6:00 PM 78 °F - 75 °F 86% 29.77 in - East 11.5 mph - -  
6:00 PM 77.0 °F - 75.2 °F 94% 29.77 in 6.2 mi East 11.5 mph - N/A   Unknown
6:30 PM 77.0 °F - 75.2 °F 94% 29.77 in 6.2 mi East 12.7 mph - N/A   Unknown
7:00 PM 78.8 °F - 75.2 °F 89% 29.80 in 6.2 mi East 13.8 mph - N/A   Unknown
7:30 PM 77.0 °F - 75.2 °F 94% 29.80 in 6.2 mi East 11.5 mph - N/A   Unknown
8:00 PM 78.8 °F - 75.2 °F 89% 29.80 in 6.2 mi East 13.8 mph - N/A   Unknown
8:30 PM 78.8 °F - 75.2 °F 89% 29.83 in 6.2 mi East 13.8 mph - N/A   Unknown
9:00 PM 77 °F - 75 °F 92% 29.83 in - East 11.5 mph - -  
9:00 PM 77.0 °F - 75.2 °F 94% 29.83 in 6.2 mi East 11.5 mph - N/A   Unknown
9:05 PM 77.0 °F - 75.2 °F 94% 29.83 in 6.2 mi East 9.2 mph - N/A   Unknown
9:28 PM 77.0 °F - 75.2 °F 94% 29.83 in 3.7 mi East 8.1 mph - N/A   Unknown
9:30 PM 77.0 °F - 75.2 °F 94% 29.83 in 3.1 mi East 9.2 mph - N/A   Unknown
10:00 PM 78.8 °F - 77.0 °F 94% 29.83 in 5.6 mi ESE 13.8 mph - N/A   Unknown
10:30 PM 78.8 °F - 75.2 °F 89% 29.80 in 6.2 mi East 15.0 mph - N/A   Unknown
11:00 PM 78.8 °F - 75.2 °F 89% 29.80 in 6.2 mi East 16.1 mph - N/A   Unknown
11:30 PM 78.8 °F - 75.2 °F 89% 29.80 in 6.2 mi East 12.7 mph - N/A   Unknown